N7LX PHTO-PHNL

Flight info

Callsign N7LX
Flight time 0h 49m
Altitude 30000
Route LAVAS V16 LNY JULLE5
Aircraft E55P/M-SDGRWY/L

Departure

Time 2026-04-26 16:02
Airport Hilo International Airport (PHTO)

Arrival

Time 2026-04-26 16:51
Airport Daniel K. Inouye International Airport (PHNL)
Time Latitude Longitude Altitude Speed Heading
2026-04-26 15:46 19.71807 -155.05937 37 ft 0 kts 40°
2026-04-26 15:58 19.71811 -155.05934 36 ft 2 kts 39°
2026-04-26 15:58 19.71834 -155.05913 35 ft 6 kts 40°
2026-04-26 15:59 19.71876 -155.05876 34 ft 9 kts 39°
2026-04-26 15:59 19.71931 -155.05829 32 ft 11 kts 39°
2026-04-26 15:59 19.71971 -155.05798 32 ft 5 kts 33°
2026-04-26 15:59 19.72004 -155.05777 31 ft 5 kts 25°
2026-04-26 16:00 19.72043 -155.05768 32 ft 6 kts
2026-04-26 16:00 19.72087 -155.05766 32 ft 6 kts
2026-04-26 16:00 19.72132 -155.05754 31 ft 7 kts 50°
2026-04-26 16:00 19.72141 -155.05701 31 ft 0 kts 91°
2026-04-26 16:01 19.72140 -155.05675 31 ft 24 kts 90°
2026-04-26 16:01 19.72137 -155.05193 38 ft 103 kts 89°
2026-04-26 16:01 19.72138 -155.04228 118 ft 152 kts 90°
2026-04-26 16:02 19.72131 -155.03059 678 ft 170 kts 90°
2026-04-26 16:02 19.72116 -155.01712 1250 ft 191 kts 89°
2026-04-26 16:02 19.72548 -155.00449 2181 ft 190 kts 51°
2026-04-26 16:02 19.73195 -154.99835 2835 ft 187 kts 29°
2026-04-26 16:03 19.74819 -154.99307 3996 ft 189 kts
2026-04-26 16:03 19.76113 -154.99115 4822 ft 193 kts
2026-04-26 16:03 19.77452 -154.98915 5674 ft 195 kts
2026-04-26 16:03 19.78794 -154.98915 6495 ft 198 kts 343°
2026-04-26 16:04 19.80042 -154.99484 7322 ft 200 kts 333°
2026-04-26 16:04 19.81272 -155.00186 8146 ft 202 kts 330°
2026-04-26 16:04 19.82471 -155.00935 8948 ft 205 kts 329°
2026-04-26 16:04 19.83696 -155.01726 9758 ft 208 kts 328°
2026-04-26 16:05 19.84914 -155.02519 10549 ft 210 kts 328°
2026-04-26 16:05 19.86168 -155.03340 11347 ft 213 kts 328°
2026-04-26 16:05 19.87425 -155.04164 12127 ft 215 kts 328°
2026-04-26 16:05 19.88698 -155.04997 12899 ft 218 kts 328°
2026-04-26 16:06 19.89912 -155.06081 13115 ft 248 kts 309°
2026-04-26 16:06 19.91093 -155.07556 13189 ft 282 kts 312°
2026-04-26 16:06 19.92469 -155.09193 13546 ft 302 kts 311°
2026-04-26 16:06 19.93860 -155.10843 14457 ft 300 kts 311°
2026-04-26 16:07 19.95221 -155.12460 15378 ft 298 kts 311°
2026-04-26 16:07 19.96616 -155.14117 16141 ft 301 kts 311°
2026-04-26 16:07 19.98008 -155.15771 16823 ft 307 kts 311°
2026-04-26 16:07 19.99438 -155.17496 17541 ft 310 kts 311°
2026-04-26 16:08 20.00867 -155.19225 18259 ft 313 kts 311°
2026-04-26 16:08 20.01806 -155.20360 18717 ft 315 kts 311°
2026-04-26 16:08 20.03754 -155.22717 19623 ft 320 kts 311°
2026-04-26 16:08 20.05232 -155.24504 20282 ft 323 kts 311°
2026-04-26 16:09 20.06605 -155.26401 20915 ft 327 kts 302°
2026-04-26 16:09 20.07848 -155.28404 21535 ft 330 kts 304°
2026-04-26 16:09 20.09138 -155.30450 22144 ft 333 kts 304°
2026-04-26 16:09 20.10421 -155.32483 22730 ft 336 kts 304°
2026-04-26 16:10 20.11741 -155.34575 23313 ft 339 kts 304°
2026-04-26 16:10 20.13047 -155.36646 23868 ft 342 kts 303°
2026-04-26 16:10 20.14032 -155.38943 24388 ft 345 kts 289°
2026-04-26 16:10 20.14853 -155.41376 24806 ft 352 kts 290°
2026-04-26 16:11 20.15704 -155.43860 24800 ft 368 kts 290°
2026-04-26 16:11 20.16588 -155.46436 24498 ft 379 kts 290°
2026-04-26 16:11 20.17512 -155.49126 24137 ft 389 kts 290°
2026-04-26 16:11 20.18444 -155.51842 23770 ft 397 kts 290°
2026-04-26 16:12 20.19374 -155.54555 23289 ft 386 kts 290°
2026-04-26 16:12 20.20282 -155.57202 22804 ft 377 kts 290°
2026-04-26 16:12 20.22028 -155.62300 21844 ft 361 kts 290°
2026-04-26 16:13 20.22881 -155.64792 21362 ft 355 kts 290°
2026-04-26 16:13 20.23711 -155.67218 20886 ft 350 kts 290°
2026-04-26 16:13 20.24547 -155.69663 20404 ft 346 kts 290°
2026-04-26 16:13 20.25354 -155.72025 19933 ft 343 kts 290°
2026-04-26 16:14 20.26164 -155.74397 19462 ft 339 kts 290°
2026-04-26 16:14 20.26959 -155.76726 19183 ft 330 kts 290°
2026-04-26 16:14 20.28511 -155.81271 18625 ft 326 kts 290°
2026-04-26 16:15 20.29281 -155.83531 18384 ft 325 kts 290°
2026-04-26 16:15 20.30054 -155.85800 18159 ft 324 kts 290°
2026-04-26 16:15 20.30816 -155.88036 18067 ft 321 kts 290°
2026-04-26 16:16 20.32333 -155.92496 17846 ft 320 kts 290°
2026-04-26 16:16 20.33085 -155.94705 17749 ft 319 kts 290°
2026-04-26 16:16 20.33837 -155.96916 17656 ft 317 kts 290°
2026-04-26 16:16 20.34586 -155.99120 17565 ft 316 kts 290°
2026-04-26 16:17 20.35332 -156.01318 17477 ft 315 kts 290°
2026-04-26 16:17 20.36081 -156.03525 17390 ft 314 kts 290°
2026-04-26 16:17 20.36819 -156.05698 17304 ft 313 kts 290°
2026-04-26 16:17 20.37555 -156.07867 17220 ft 312 kts 290°
2026-04-26 16:18 20.38286 -156.10025 17136 ft 311 kts 290°
2026-04-26 16:18 20.39751 -156.14348 16969 ft 309 kts 290°
2026-04-26 16:19 20.41203 -156.18640 16804 ft 307 kts 290°
2026-04-26 16:19 20.41931 -156.20792 16721 ft 307 kts 290°
2026-04-26 16:19 20.43132 -156.24344 16584 ft 306 kts 290°
2026-04-26 16:20 20.44089 -156.27177 16475 ft 305 kts 290°
2026-04-26 16:20 20.45523 -156.31426 16312 ft 303 kts 290°
2026-04-26 16:20 20.46233 -156.33530 16231 ft 303 kts 290°
2026-04-26 16:21 20.46945 -156.35640 16150 ft 302 kts 290°
2026-04-26 16:21 20.47653 -156.37741 16069 ft 302 kts 290°
2026-04-26 16:21 20.48360 -156.39839 15989 ft 301 kts 290°
2026-04-26 16:21 20.49076 -156.41928 15906 ft 300 kts 293°
2026-04-26 16:22 20.50049 -156.43909 15829 ft 300 kts 298°
2026-04-26 16:22 20.51027 -156.45857 15748 ft 299 kts 298°
2026-04-26 16:22 20.52000 -156.47794 15669 ft 299 kts 298°
2026-04-26 16:22 20.52977 -156.49745 15588 ft 298 kts 298°
2026-04-26 16:23 20.53953 -156.51695 15508 ft 298 kts 298°
2026-04-26 16:23 20.54930 -156.53650 15428 ft 297 kts 298°
2026-04-26 16:23 20.55902 -156.55595 15348 ft 297 kts 298°
2026-04-26 16:23 20.56872 -156.57536 15269 ft 296 kts 298°
2026-04-26 16:24 20.57842 -156.59479 15189 ft 296 kts 298°
2026-04-26 16:24 20.58801 -156.61400 15110 ft 295 kts 298°
2026-04-26 16:24 20.59761 -156.63322 15031 ft 295 kts 298°
2026-04-26 16:24 20.60726 -156.65257 14952 ft 294 kts 298°
2026-04-26 16:25 20.61695 -156.67201 14873 ft 294 kts 298°
2026-04-26 16:25 20.62643 -156.69102 14795 ft 293 kts 298°
2026-04-26 16:25 20.63600 -156.71024 14716 ft 293 kts 298°
2026-04-26 16:25 20.64567 -156.72963 14637 ft 292 kts 298°
2026-04-26 16:26 20.65515 -156.74867 14559 ft 292 kts 298°
2026-04-26 16:26 20.66142 -156.76128 14507 ft 292 kts 298°
2026-04-26 16:26 20.67410 -156.78674 14403 ft 291 kts 298°
2026-04-26 16:26 20.68361 -156.80586 14325 ft 291 kts 298°
2026-04-26 16:27 20.69312 -156.82500 14246 ft 290 kts 298°
2026-04-26 16:27 20.70257 -156.84401 14169 ft 290 kts 298°
2026-04-26 16:27 20.71199 -156.86296 14091 ft 289 kts 298°
2026-04-26 16:27 20.72139 -156.88188 14014 ft 289 kts 298°
2026-04-26 16:28 20.73076 -156.90076 13936 ft 288 kts 298°
2026-04-26 16:28 20.74008 -156.91952 13860 ft 288 kts 298°
2026-04-26 16:28 20.74954 -156.93860 13782 ft 287 kts 298°
2026-04-26 16:28 20.75886 -156.95737 13705 ft 287 kts 298°
2026-04-26 16:29 20.76763 -156.97649 13623 ft 286 kts 291°
2026-04-26 16:29 20.77752 -156.99471 13563 ft 284 kts 308°
2026-04-26 16:29 20.78895 -157.01204 13332 ft 290 kts 301°
2026-04-26 16:29 20.79573 -157.03227 13029 ft 293 kts 284°
2026-04-26 16:30 20.80091 -157.05354 12698 ft 294 kts 284°
2026-04-26 16:30 20.80564 -157.07475 12372 ft 294 kts 283°
2026-04-26 16:30 20.81022 -157.09596 12046 ft 294 kts 283°
2026-04-26 16:30 20.81468 -157.11705 11722 ft 294 kts 282°
2026-04-26 16:31 20.81931 -157.13846 11389 ft 292 kts 285°
2026-04-26 16:31 20.82586 -157.15866 11242 ft 287 kts 289°
2026-04-26 16:31 20.83219 -157.17836 11063 ft 280 kts 289°
2026-04-26 16:31 20.83849 -157.19785 10876 ft 275 kts 289°
2026-04-26 16:32 20.84465 -157.21695 10694 ft 270 kts 289°
2026-04-26 16:32 20.84870 -157.22951 10575 ft 266 kts 289°
2026-04-26 16:32 20.85668 -157.25427 10342 ft 261 kts 289°
2026-04-26 16:32 20.86251 -157.27235 10173 ft 258 kts 289°
2026-04-26 16:33 20.86828 -157.29030 10005 ft 254 kts 289°
2026-04-26 16:33 20.87400 -157.30809 9838 ft 252 kts 289°
2026-04-26 16:33 20.87970 -157.32584 9672 ft 249 kts 289°
2026-04-26 16:33 20.88525 -157.34311 9511 ft 247 kts 289°
2026-04-26 16:34 20.89085 -157.36057 9347 ft 245 kts 289°
2026-04-26 16:34 20.89631 -157.37758 9188 ft 243 kts 289°
2026-04-26 16:34 20.90179 -157.39464 9029 ft 241 kts 289°
2026-04-26 16:34 20.90722 -157.41159 8870 ft 240 kts 289°
2026-04-26 16:35 20.91257 -157.42827 8714 ft 238 kts 289°
2026-04-26 16:35 20.91796 -157.44511 8556 ft 237 kts 289°
2026-04-26 16:35 20.92323 -157.46156 8402 ft 236 kts 289°
2026-04-26 16:35 20.92854 -157.47813 8247 ft 234 kts 289°
2026-04-26 16:36 20.93381 -157.49463 8093 ft 233 kts 289°
2026-04-26 16:36 20.93903 -157.51092 7940 ft 232 kts 289°
2026-04-26 16:36 20.94422 -157.52716 7788 ft 231 kts 289°
2026-04-26 16:36 20.94947 -157.54355 7634 ft 230 kts 289°
2026-04-26 16:37 20.95460 -157.55963 7483 ft 229 kts 289°
2026-04-26 16:37 20.95978 -157.57584 7331 ft 229 kts 289°
2026-04-26 16:37 20.96488 -157.59184 7181 ft 228 kts 289°
2026-04-26 16:37 20.96825 -157.60242 7082 ft 227 kts 289°
2026-04-26 16:38 20.97512 -157.62392 6872 ft 227 kts 289°
2026-04-26 16:38 20.98018 -157.63977 6712 ft 226 kts 289°
2026-04-26 16:38 20.98528 -157.65576 6557 ft 226 kts 289°
2026-04-26 16:38 20.99032 -157.67157 6405 ft 225 kts 289°
2026-04-26 16:39 20.99533 -157.68727 6255 ft 224 kts 289°
2026-04-26 16:39 21.00040 -157.70319 6105 ft 224 kts 289°
2026-04-26 16:39 21.00537 -157.71881 5957 ft 223 kts 289°
2026-04-26 16:39 21.01040 -157.73459 5809 ft 222 kts 289°
2026-04-26 16:40 21.01534 -157.75012 5663 ft 222 kts 289°
2026-04-26 16:40 21.02032 -157.76578 5516 ft 221 kts 289°
2026-04-26 16:40 21.02527 -157.78133 5370 ft 220 kts 289°
2026-04-26 16:40 21.03016 -157.79671 5226 ft 219 kts 289°
2026-04-26 16:41 21.03504 -157.81206 5082 ft 218 kts 289°
2026-04-26 16:41 21.03992 -157.82741 4939 ft 218 kts 289°
2026-04-26 16:41 21.04484 -157.84291 4793 ft 217 kts 289°
2026-04-26 16:41 21.04966 -157.85808 4651 ft 216 kts 289°
2026-04-26 16:42 21.05446 -157.87321 4510 ft 215 kts 289°
2026-04-26 16:42 21.05924 -157.88827 4369 ft 214 kts 289°
2026-04-26 16:42 21.06406 -157.90346 4227 ft 213 kts 289°
2026-04-26 16:42 21.06879 -157.91840 4087 ft 212 kts 289°
2026-04-26 16:43 21.07353 -157.93332 4011 ft 208 kts 289°
2026-04-26 16:43 21.08056 -157.94640 3932 ft 204 kts 310°
2026-04-26 16:43 21.08960 -157.95808 3781 ft 202 kts 308°
2026-04-26 16:43 21.09834 -157.96973 3630 ft 200 kts 308°
2026-04-26 16:44 21.10695 -157.98122 3480 ft 197 kts 308°
2026-04-26 16:44 21.11558 -157.99274 3331 ft 194 kts 308°
2026-04-26 16:44 21.12396 -158.00391 3186 ft 192 kts 308°
2026-04-26 16:44 21.13222 -158.01495 3044 ft 190 kts 308°
2026-04-26 16:45 21.14052 -158.02583 3001 ft 184 kts 314°
2026-04-26 16:45 21.15055 -158.03426 2906 ft 183 kts 324°
2026-04-26 16:45 21.16071 -158.04237 2675 ft 182 kts 323°
2026-04-26 16:45 21.17093 -158.05057 2447 ft 181 kts 323°
2026-04-26 16:46 21.18090 -158.05858 2230 ft 179 kts 323°
2026-04-26 16:46 21.19095 -158.06665 2016 ft 178 kts 323°
2026-04-26 16:46 21.20126 -158.07294 1923 ft 168 kts 348°
2026-04-26 16:46 21.21207 -158.07075 1949 ft 152 kts 33°
2026-04-26 16:47 21.21927 -158.06256 1942 ft 148 kts 51°
2026-04-26 16:47 21.22568 -158.05405 1933 ft 146 kts 52°
2026-04-26 16:47 21.23185 -158.04556 1932 ft 143 kts 52°
2026-04-26 16:47 21.23800 -158.03696 1937 ft 144 kts 52°
2026-04-26 16:48 21.24402 -158.02850 1936 ft 143 kts 53°
2026-04-26 16:48 21.25013 -158.01988 1937 ft 144 kts 53°
2026-04-26 16:48 21.25614 -158.01138 1927 ft 145 kts 53°
2026-04-26 16:48 21.26241 -158.00250 1759 ft 150 kts 53°
2026-04-26 16:49 21.26869 -157.99361 1570 ft 150 kts 53°
2026-04-26 16:49 21.27500 -157.98467 1373 ft 150 kts 53°
2026-04-26 16:49 21.28137 -157.97566 1171 ft 150 kts 53°
2026-04-26 16:49 21.28762 -157.96680 970 ft 149 kts 53°
2026-04-26 16:50 21.29358 -157.95837 764 ft 136 kts 53°
2026-04-26 16:50 21.29912 -157.95053 581 ft 126 kts 53°
2026-04-26 16:50 21.30423 -157.94330 418 ft 117 kts 53°
2026-04-26 16:50 21.30901 -157.93654 261 ft 112 kts 53°
2026-04-26 16:51 21.31359 -157.93008 151 ft 106 kts 53°
2026-04-26 16:51 21.31790 -157.92397 63 ft 100 kts 53°
2026-04-26 16:51 21.32204 -157.91811 8 ft 92 kts 53°
2026-04-26 16:51 21.32452 -157.91457 14 ft 46 kts 52°
2026-04-26 16:52 21.32638 -157.91199 20 ft 41 kts 53°
2026-04-26 16:52 21.32695 -157.91116 22 ft 40 kts 54°
2026-04-26 16:52 21.32916 -157.90801 22 ft 21 kts 54°
2026-04-26 16:52 21.33000 -157.90736 21 ft 12 kts 341°
2026-04-26 16:53 21.33036 -157.90781 22 ft 7 kts 277°
2026-04-26 16:53 21.33036 -157.90837 23 ft 7 kts 265°
2026-04-26 16:53 21.33021 -157.90892 25 ft 8 kts 237°
2026-04-26 16:53 21.32988 -157.90945 25 ft 9 kts 244°
2026-04-26 16:54 21.33008 -157.90996 27 ft 6 kts 343°
2026-04-26 16:54 21.33052 -157.91013 27 ft 7 kts 327°
2026-04-26 16:54 21.33094 -157.91045 27 ft 7 kts 323°
2026-04-26 16:54 21.33102 -157.91051 27 ft 0 kts 322°